Regional Weather Roundup
Issued by NWS Jackson, KY

Home | Current Version | Previous Version | Graphics & Text | Print | Product List | Glossary On
Versions: 1 2 3 4 5 6 7 8 9 10 11 12 13 14 15 16 17 18 19 20 21 22 23 24 25 26 27 28 29 30 31 32 33 34 35 36 37 38 39 40 41 42 43 44 45 46 47 48 49 50
000
ASUS43 KJKL 260010
RWRJKL

EAST KENTUCKY HOURLY WEATHER ROUNDUP
NATIONAL WEATHER SERVICE JACKSON KY
800 PM EDT MON SEP 25 2017

NOTE: "FAIR" INDICATES FEW OR NO CLOUDS BELOW 12,000 FEET WITH
NO SIGNIFICANT WEATHER AND/OR OBSTRUCTIONS TO VISIBILITY.

* THESE REPORTS ARE NOT UNDER NWS QUALITY CONTROL AND MAY NOT
  REPORT WEATHER SUCH AS PRECIPITATION AND FOG.

KYZ079-080-083-085-087-088-110-112-115-119-120-260100
...EASTERN KENTUCKY...

CITY           SKY/WX    TMP DP  RH WIND       PRES   REMARKS
JACKSON        CLEAR     75  63  66 CALM      30.01F
6HR MIN TEMP:  75; 6HR MAX TEMP:  86;

LONDON         CLEAR     73  66  78 CALM      30.00S
6HR MIN TEMP:  73; 6HR MAX TEMP:  85;

SOMERSET*      CLEAR     73  63  68 CALM      30.00S
MONTICELLO*    CLEAR     73  65  75 SE5       30.00S
6HR MIN TEMP:  73; 6HR MAX TEMP:  86;

WILLIAMSBURG*  CLEAR     73  66  78 NW3       30.00S
MIDDLESBORO*   CLEAR     73  65  77 CALM      30.00S
6HR MIN TEMP:  73; 6HR MAX TEMP:  84;

HARLAN APT*    PTCLDY    70  64  83 CALM      30.02S
PIKE CO APT*     N/A     74  64  71 N6        30.02S
BIG SANDY APT* CLEAR     72  67  84 NE3       30.01F
6HR MIN TEMP:  71; 6HR MAX TEMP:  86;

MOREHEAD APT*  PTCLDY    77  61  57 CALM      30.02S
$$

KYZ035-036-041-042-044-050-067-078-099-260100
...CENTRAL KENTUCKY...

CITY           SKY/WX    TMP DP  RH WIND       PRES   REMARKS
MT STERLING*   PTCLDY    77  64  65 SE5       30.01S
FLEMING/MASON* CLOUDY    77  66  68 CALM      30.01S
DANVILLE*      CLEAR     73  63  68 CALM      30.00S
LEXINGTON      CLEAR     80  63  55 E5        29.99S
6HR MIN TEMP:  80; 6HR MAX TEMP:  88;

FRANKFORT      PTCLDY    79  62  56 E3        29.97S
6HR MIN TEMP:  79; 6HR MAX TEMP:  90;

LOUISVILLE     PTCLDY    84  64  50 E6        29.95S
6HR MIN TEMP:  84; 6HR MAX TEMP:  90;

LEBANON*         N/A     79  64  61 CALM      29.98S
GLASGOW*       CLEAR     74  66  76 CALM      29.96S
BOWLING GREEN  CLEAR     81  67  62 CALM      29.95S
6HR MIN TEMP:  81; 6HR MAX TEMP:  90;

$$

KYZ091>093-OHZ055-061-077-WVZ005-015-034-035-042-260100
...SOUTHERN OHIO/WEST VIRGINIA...

CITY           SKY/WX    TMP DP  RH WIND       PRES   REMARKS
COVINGTON      MOCLDY    78  66  66 S3        29.98S
COLUMBUS       MOCLDY    83  64  52 SE5       29.99R
DAYTON         CLOUDY    80  60  50 S6        30.00S
WILMINGTON     CLOUDY    71  66  84 SW3       30.00S
HUNTINGTON     CLEAR     77  64  64 CALM      29.99S
CHARLESTON     PTCLDY    76  65  68 CALM      30.00S
PINEVILLE*     CLEAR     67  61  81 MISG      30.09S
BECKLEY        CLEAR     70  58  65 CALM      30.09S
BLUEFIELD      CLEAR     69  57  65 E3        30.11S
LOGAN CO APT*    N/A     77  64  65 CALM      30.03S
$$

VAZ002-007-008-TNZ017-027-036-066-071-260100
...SOUTHWEST VIRGINIA/EAST TENNESSEE...

CITY           SKY/WX    TMP DP  RH WIND       PRES   REMARKS
WISE*          PTCLDY    72  59  64 CALM      30.09S
JONESVILLE*      N/A     73  63  68 CALM      30.02S
ABINGDON*      CLEAR     76  58  53 E3        30.05S
BRISTOL        MOCLDY    76  61  59 E5        30.00S
MORRISTOWN*    CLEAR     75  61  60 CALM      29.98R
SEVIERVILLE*   CLEAR     75  57  53 CALM      29.97R
KNOXVILLE      PTCLDY    79  60  52 NE5       29.95F
LAFOLLETTE*    CLEAR     72  64  78 CALM      30.02S
OAK RIDGE      CLEAR     77  61  57 CALM      29.98S
CROSSVILLE     CLEAR     74  64  71 E3        30.02S
NASHVILLE      PTCLDY    83  65  54 NE5       29.94S
$$

...KEY TO REMARKS...
VSB - VISIBILITY IN MILES
WCI - WIND CHILL INDEX
HX  - HEAT INDEX

$$



USA.gov is the U.S. government's official web portal to all federal, state and local government web resources and services.